Total_Precipitation_Accumulation
0.18 0.17 0.16 0.14 0.13 0.15 0.19 0.27 0.33 0.25 0.16 0.09 0.09 0.13 0.21 0.24 0.26 0.30 0.37 0.27 0.24 0.30 0.30 0.32 0.37 0.46 0.49 0.41 0.33 0.28 0.25 0.24 0.24 0.29 0.37 0.47 0.58 0.68
0.17 0.15 0.14 0.12 0.12 0.12 0.14 0.18 0.27 0.34 0.29 0.13 0.10 0.15 0.21 0.21 0.26 0.34 0.36 0.33 0.38 0.61 0.72 0.64 0.58 0.71 0.77 0.64 0.50 0.39 0.34 0.31 0.31 0.33 0.37 0.44 0.52 0.62
0.13 0.13 0.13 0.13 0.14 0.14 0.16 0.20 0.25 0.35 0.40 0.23 0.15 0.18 0.25 0.28 0.33 0.38 0.39 0.42 0.54 0.95 1.22 1.41 1.15 1.02 1.06 0.92 0.74 0.56 0.46 0.41 0.41 0.44 0.47 0.52 0.55 0.59
0.13 0.15 0.14 0.15 0.16 0.17 0.21 0.24 0.28 0.38 0.50 0.43 0.30 0.33 0.37 0.40 0.50 0.53 0.48 0.43 0.51 0.94 1.32 1.66 1.62 1.41 1.42 1.24 1.02 0.76 0.57 0.48 0.47 0.48 0.51 0.54 0.58 0.63
0.15 0.17 0.17 0.20 0.21 0.24 0.31 0.36 0.38 0.42 0.54 0.57 0.45 0.47 0.52 0.59 0.71 0.66 0.56 0.52 0.44 0.72 1.19 1.53 1.73 1.80 1.90 1.75 1.43 1.04 0.74 0.56 0.49 0.49 0.50 0.52 0.54 0.54
0.16 0.20 0.23 0.28 0.32 0.37 0.39 0.38 0.43 0.49 0.54 0.61 0.57 0.60 0.65 0.71 0.75 0.75 0.62 0.53 0.50 0.58 1.01 1.51 1.84 1.92 2.12 2.25 1.96 1.45 1.02 0.71 0.54 0.48 0.42 0.39 0.38 0.38
0.16 0.19 0.24 0.32 0.39 0.37 0.36 0.37 0.46 0.57 0.59 0.67 0.69 0.66 0.64 0.71 0.73 0.65 0.56 0.48 0.42 0.48 0.68 1.13 1.80 2.11 2.16 2.26 2.22 1.74 1.27 0.92 0.67 0.53 0.44 0.38 0.35 0.35
0.19 0.19 0.19 0.21 0.22 0.22 0.29 0.35 0.44 0.61 0.82 0.92 0.81 0.69 0.56 0.55 0.59 0.56 0.57 0.52 0.44 0.34 0.41 0.72 1.33 1.98 2.23 2.31 2.29 1.77 1.27 0.95 0.76 0.64 0.55 0.47 0.42 0.39
0.24 0.22 0.16 0.13 0.15 0.19 0.24 0.29 0.39 0.57 0.80 1.04 1.02 0.74 0.65 0.59 0.63 0.62 0.61 0.63 0.55 0.37 0.41 0.62 1.05 1.70 2.03 2.18 2.09 1.54 1.13 0.90 0.78 0.69 0.61 0.55 0.49 0.45
0.20 0.20 0.20 0.18 0.19 0.23 0.24 0.27 0.36 0.53 0.68 0.77 0.98 0.81 0.65 0.62 0.63 0.62 0.63 0.60 0.47 0.34 0.40 0.61 0.94 1.44 1.60 1.70 1.75 1.39 1.07 0.89 0.77 0.68 0.62 0.58 0.54 0.52
0.14 0.15 0.15 0.16 0.20 0.32 0.40 0.47 0.57 0.73 0.82 0.96 1.10 1.07 0.94 0.85 0.71 0.64 0.63 0.55 0.45 0.36 0.41 0.55 0.79 1.03 1.18 1.30 1.33 1.26 1.06 0.91 0.80 0.72 0.65 0.59 0.53 0.55
0.08 0.13 0.15 0.16 0.25 0.41 0.56 0.67 0.78 0.91 0.87 0.94 1.13 1.18 1.03 1.01 1.02 0.85 0.69 0.56 0.47 0.45 0.41 0.48 0.62 0.71 0.98 1.10 1.06 1.00 0.97 1.01 0.94 0.82 0.73 0.62 0.49 0.45
0.08 0.16 0.24 0.25 0.32 0.52 0.70 0.76 0.94 1.04 0.99 0.92 0.86 0.85 0.89 0.90 0.87 0.84 0.69 0.52 0.43 0.42 0.38 0.46 0.59 0.61 0.72 0.88 0.98 1.03 0.98 0.96 0.89 0.91 0.91 0.80 0.63 0.52
0.18 0.26 0.34 0.35 0.41 0.61 0.76 0.95 1.15 1.24 1.06 0.91 0.71 0.62 0.60 0.63 0.67 0.63 0.54 0.45 0.38 0.36 0.35 0.40 0.57 0.65 0.62 0.63 0.91 1.07 1.10 1.11 1.01 0.95 0.91 0.89 0.79 0.74
0.23 0.33 0.38 0.41 0.56 0.82 1.04 1.21 1.31 1.24 1.11 0.88 0.66 0.59 0.53 0.49 0.51 0.54 0.51 0.42 0.35 0.31 0.31 0.35 0.46 0.57 0.56 0.60 0.83 0.97 1.10 1.31 1.24 1.12 0.96 0.85 0.80 0.75
0.22 0.36 0.48 0.55 0.71 0.98 1.18 1.31 1.31 1.20 1.01 0.81 0.68 0.64 0.56 0.50 0.49 0.44 0.39 0.32 0.30 0.32 0.32 0.33 0.39 0.45 0.51 0.55 0.67 0.85 0.97 1.33 1.36 1.11 0.98 0.93 0.85 0.76
0.23 0.32 0.42 0.55 0.75 0.94 1.10 1.18 1.16 1.07 0.94 0.72 0.60 0.61 0.61 0.54 0.50 0.42 0.33 0.24 0.22 0.26 0.30 0.33 0.36 0.37 0.39 0.46 0.60 0.76 0.88 1.08 1.15 0.96 0.77 0.80 0.87 0.81
0.27 0.34 0.44 0.59 0.78 0.95 1.06 1.05 0.97 0.90 0.79 0.65 0.56 0.52 0.51 0.48 0.45 0.38 0.28 0.22 0.21 0.21 0.23 0.25 0.25 0.23 0.22 0.34 0.59 0.67 0.70 0.86 0.87 0.71 0.52 0.56 0.81 0.88
0.25 0.37 0.50 0.63 0.78 0.92 0.97 0.95 0.91 0.81 0.70 0.60 0.53 0.47 0.42 0.40 0.35 0.30 0.25 0.21 0.19 0.18 0.18 0.16 0.15 0.14 0.15 0.33 0.59 0.71 0.67 0.66 0.61 0.54 0.48 0.48 0.70 0.87
0.32 0.47 0.57 0.64 0.72 0.78 0.84 0.88 0.88 0.79 0.67 0.59 0.54 0.49 0.42 0.34 0.27 0.22 0.19 0.16 0.15 0.14 0.14 0.12 0.13 0.14 0.15 0.24 0.50 0.66 0.63 0.51 0.41 0.41 0.42 0.46 0.62 0.74
0.40 0.51 0.59 0.65 0.66 0.66 0.70 0.74 0.75 0.72 0.64 0.58 0.54 0.51 0.43 0.32 0.22 0.16 0.13 0.10 0.10 0.10 0.11 0.13 0.12 0.12 0.10 0.09 0.23 0.40 0.47 0.51 0.41 0.33 0.31 0.32 0.35 0.35
0.40 0.48 0.54 0.58 0.56 0.55 0.56 0.58 0.60 0.60 0.57 0.54 0.50 0.47 0.38 0.26 0.19 0.14 0.11 0.09 0.08 0.07 0.08 0.09 0.08 0.06 0.06 0.08 0.17 0.26 0.29 0.28 0.27 0.27 0.26 0.23 0.19 0.28
0.39 0.41 0.43 0.46 0.45 0.44 0.43 0.44 0.48 0.51 0.52 0.53 0.50 0.44 0.33 0.23 0.18 0.13 0.09 0.07 0.05 0.04 0.04 0.05 0.04 0.03 0.04 0.05 0.09 0.14 0.15 0.14 0.12 0.13 0.22 0.29 0.29 0.36